Location: Aiyekoto
(8.4333°N, 4.3667°E)
Time: 23:01:45
(UTC+00:00)

STARLINK-1146 - Pass Details

Date: 07 June 2020
Orbit: 548 x 551 km, 53.0° (Epoch: 10 July)

Event Time Altitude Azimuth Distance (km) Brightness Sun altitude
Exits shadow 04:28:29 18° 219° (SW) 1,369 5.1 -13.2°
Maximum altitude 04:31:28 80° 304° (NW) 555 3.5 -12.6°
Drops below altitude 10° 04:35:34 10° 32° (NNE) 1,802 7.2 -11.6°
Sets 04:37:47 0° 33° (NNE) 2,692 8.2 -11.1°
